Location: Newark
(33.6333°S, 78.8500°W)
Time: 03:10:52
(UTC+00:00)

ISS - Pass Details

Date: 19 August 2019
Orbit: 411 x 421 km, 51.6° (Epoch: 20 September)

Event Time Altitude Azimuth Distance (km) Brightness Sun altitude
Rises 23:35:10 0° 341° (NNW) 2,354 0.4 -10.3°
Reaches altitude 10° 23:37:30 10° 355° (N) 1,496 -0.8 -10.7°
Maximum altitude 23:40:16 24° 51° (NE) 922 -2.4 -11.3°
Enters shadow 23:41:41 18° 87° (E) 1,101 -2.3 -11.6°
